Location: Devore Heights
(34.2372°N, 117.4156°W)
Time: 18:46:26
(UTC+00:00)

Vanguard 1 Rocket - Pass Details

Date: 20 September 2024
Orbit: 650 x 4218 km, 34.3° (Epoch: 04 October)

Event Time Altitude Azimuth Distance (km) Brightness Sun altitude
Rises 11:16:30 0° 258° (WSW) 4,938 - -29.0°
Reaches altitude 10° 11:19:04 10° 258° (WSW) 4,279 - -28.5°
Exits shadow 11:24:49 40° 257° (WSW) 3,155 9.5 -27.4°
Maximum altitude 11:31:56 88° 171° (S) 2,940 9.8 -26.1°
Drops below altitude 10° 11:56:06 10° 85° (E) 7,318 13.1 -21.3°
Sets 12:02:14 0° 86° (E) 8,458 13.8 -20.1°
